Wetterdaten: Samstag, 02.05.2015
Datum Zeit Auen-Temp. Temp gefhlt Luftfeuchte Luftdruck Regen Wind Richtung Richtung Taupunkt Windben
02.05.2015 00:00 9,2 C 9,1 C 91 % 1005,1 hPa 0,0 mm 3,4 km/h (1 Bft) S 180 7,8 C 0,0 km/h (0 Bft)
02.05.2015 00:05 9,2 C 9,1 C 91 % 1005,1 hPa 0,0 mm 3,4 km/h (1 Bft) SW 225 7,8 C 3,9 km/h (1 Bft)
02.05.2015 00:10 9,3 C 9,1 C 91 % 1005,1 hPa 0,0 mm 3,6 km/h (1 Bft) S-SW 202 7,9 C 4,4 km/h (1 Bft)
02.05.2015 00:15 9,4 C 9,2 C 90 % 1005,1 hPa 0,7 mm 4,1 km/h (1 Bft) W-SW 247 7,8 C 8,0 km/h (2 Bft)
02.05.2015 00:20 9,4 C 9,2 C 90 % 1005,1 hPa 0,0 mm 5,4 km/h (1 Bft) SW 225 7,8 C 6,0 km/h (2 Bft)
02.05.2015 00:25 9,3 C 9,1 C 90 % 1005,1 hPa 0,0 mm 3,9 km/h (1 Bft) W 270 7,7 C 8,5 km/h (2 Bft)
02.05.2015 00:30 9,4 C 9,2 C 90 % 1005,1 hPa 0,0 mm 4,4 km/h (1 Bft) S 180 7,8 C 8,0 km/h (2 Bft)
02.05.2015 00:35 9,4 C 9,1 C 89 % 1005,1 hPa 0,0 mm 6,2 km/h (2 Bft) SW 225 7,7 C 19,7 km/h (3 Bft)
02.05.2015 00:40 9,4 C 9,0 C 89 % 1005,4 hPa 0,0 mm 7,5 km/h (2 Bft) SW 225 7,7 C 12,7 km/h (3 Bft)
02.05.2015 00:45 9,4 C 8,9 C 89 % 1005,4 hPa 0,0 mm 8,3 km/h (2 Bft) SW 225 7,7 C 4,9 km/h (1 Bft)
02.05.2015 00:50 9,4 C 9,0 C 88 % 1005,4 hPa 0,0 mm 7,0 km/h (2 Bft) W 270 7,5 C 4,4 km/h (1 Bft)
02.05.2015 00:55 9,3 C 9,0 C 88 % 1005,4 hPa 0,0 mm 6,0 km/h (2 Bft) W 270 7,4 C 6,2 km/h (2 Bft)
02.05.2015 01:00 9,2 C 9,0 C 88 % 1005,6 hPa 0,0 mm 5,2 km/h (1 Bft) W-SW 247 7,3 C 5,2 km/h (1 Bft)
02.05.2015 01:05 9,3 C 9,0 C 88 % 1005,6 hPa 0,7 mm 7,0 km/h (2 Bft) S 180 7,4 C 10,9 km/h (2 Bft)
02.05.2015 01:10 9,2 C 8,9 C 88 % 1005,6 hPa 0,0 mm 6,5 km/h (2 Bft) W 270 7,3 C 2,6 km/h (1 Bft)
02.05.2015 01:15 9,1 C 8,9 C 88 % 1005,6 hPa 0,0 mm 5,7 km/h (1 Bft) W-SW 247 7,2 C 3,4 km/h (1 Bft)
02.05.2015 01:20 9,0 C 8,8 C 88 % 1005,8 hPa 0,0 mm 2,6 km/h (1 Bft) W 270 7,1 C 0,0 km/h (0 Bft)
02.05.2015 01:25 8,9 C 8,7 C 88 % 1005,8 hPa 0,0 mm 1,3 km/h (1 Bft) W-SW 247 7,0 C 0,0 km/h (0 Bft)
02.05.2015 01:30 8,9 C 8,7 C 88 % 1005,8 hPa 0,7 mm 0,5 km/h (0 Bft) S-SO 157 7,0 C 0,0 km/h (0 Bft)
02.05.2015 01:35 8,8 C 8,7 C 88 % 1005,8 hPa 0,0 mm 0,3 km/h (0 Bft) S-SW 202 6,9 C 0,0 km/h (0 Bft)
02.05.2015 01:40 8,8 C 8,6 C 88 % 1006,4 hPa 0,0 mm 1,0 km/h (0 Bft) N 360 6,9 C 4,9 km/h (1 Bft)
02.05.2015 01:45 8,8 C 8,6 C 88 % 1006,4 hPa 0,0 mm 1,6 km/h (1 Bft) W-SW 247 6,9 C 4,9 km/h (1 Bft)
02.05.2015 01:50 8,8 C 8,6 C 88 % 1006,4 hPa 0,7 mm 1,8 km/h (1 Bft) S 180 6,9 C 0,0 km/h (0 Bft)
02.05.2015 01:55 8,8 C 8,6 C 89 % 1006,4 hPa 0,0 mm 2,1 km/h (1 Bft) S 180 7,1 C 4,9 km/h (1 Bft)
02.05.2015 02:00 8,8 C 8,6 C 89 % 1006,1 hPa 0,0 mm 4,4 km/h (1 Bft) W 270 7,1 C 7,8 km/h (2 Bft)
02.05.2015 02:05 8,8 C 8,6 C 89 % 1006,1 hPa 0,0 mm 4,4 km/h (1 Bft) SW 225 7,1 C 4,1 km/h (1 Bft)
02.05.2015 02:10 8,8 C 8,6 C 88 % 1006,1 hPa 0,0 mm 3,6 km/h (1 Bft) SW 225 6,9 C 9,1 km/h (2 Bft)
02.05.2015 02:15 8,8 C 8,6 C 88 % 1006,1 hPa 0,0 mm 3,6 km/h (1 Bft) W 270 6,9 C 4,1 km/h (1 Bft)
02.05.2015 02:20 8,8 C 8,6 C 88 % 1006,3 hPa 0,0 mm 2,6 km/h (1 Bft) W-SW 247 6,9 C 3,4 km/h (1 Bft)
02.05.2015 02:25 8,8 C 8,6 C 88 % 1006,3 hPa 0,0 mm 2,3 km/h (1 Bft) SW 225 6,9 C 8,5 km/h (2 Bft)
02.05.2015 02:30 8,8 C 8,6 C 88 % 1006,3 hPa 0,0 mm 2,1 km/h (1 Bft) SW 225 6,9 C 2,8 km/h (1 Bft)
02.05.2015 02:35 8,7 C 8,5 C 88 % 1006,3 hPa 0,7 mm 2,6 km/h (1 Bft) W-SW 247 6,8 C 0,0 km/h (0 Bft)
02.05.2015 02:40 8,7 C 8,5 C 88 % 1006,4 hPa 0,0 mm 1,3 km/h (1 Bft) SW 225 6,8 C 0,0 km/h (0 Bft)
02.05.2015 02:45 8,7 C 8,5 C 88 % 1006,4 hPa 0,7 mm 2,1 km/h (1 Bft) O 90 6,8 C 2,8 km/h (1 Bft)
02.05.2015 02:50 8,6 C 8,5 C 88 % 1006,4 hPa 0,0 mm 2,3 km/h (1 Bft) W-SW 247 6,7 C 0,0 km/h (0 Bft)
02.05.2015 02:55 8,7 C 8,5 C 88 % 1006,4 hPa 0,0 mm 2,6 km/h (1 Bft) W-SW 247 6,8 C 7,5 km/h (2 Bft)
02.05.2015 03:00 8,7 C 8,5 C 88 % 1006,6 hPa 0,7 mm 3,9 km/h (1 Bft) W 270 6,8 C 4,9 km/h (1 Bft)
02.05.2015 03:05 8,6 C 8,5 C 88 % 1006,6 hPa 0,0 mm 3,9 km/h (1 Bft) S 180 6,7 C 5,7 km/h (1 Bft)
02.05.2015 03:10 8,6 C 8,5 C 88 % 1006,6 hPa 0,7 mm 3,1 km/h (1 Bft) SW 225 6,7 C 6,0 km/h (2 Bft)
02.05.2015 03:15 8,6 C 8,5 C 88 % 1006,6 hPa 0,0 mm 3,1 km/h (1 Bft) W-SW 247 6,7 C 4,1 km/h (1 Bft)
02.05.2015 03:20 8,6 C 8,5 C 89 % 1006,8 hPa 0,7 mm 5,2 km/h (1 Bft) W-SW 247 6,9 C 7,8 km/h (2 Bft)
02.05.2015 03:25 8,7 C 8,5 C 89 % 1006,8 hPa 0,0 mm 5,7 km/h (1 Bft) W-SW 247 7,0 C 2,8 km/h (1 Bft)
02.05.2015 03:30 8,7 C 8,5 C 89 % 1006,8 hPa 0,0 mm 5,2 km/h (1 Bft) W-SW 247 7,0 C 5,7 km/h (1 Bft)
02.05.2015 03:35 8,7 C 8,5 C 89 % 1006,8 hPa 0,0 mm 4,9 km/h (1 Bft) S-SO 157 7,0 C 11,1 km/h (2 Bft)
02.05.2015 03:40 8,7 C 8,5 C 89 % 1006,4 hPa 0,0 mm 6,2 km/h (2 Bft) W-SW 247 7,0 C 4,4 km/h (1 Bft)
02.05.2015 03:45 8,8 C 8,5 C 89 % 1006,4 hPa 0,0 mm 6,7 km/h (2 Bft) SW 225 7,1 C 4,9 km/h (1 Bft)
02.05.2015 03:50 8,8 C 8,6 C 89 % 1006,4 hPa 0,0 mm 6,2 km/h (2 Bft) SW 225 7,1 C 7,0 km/h (2 Bft)
02.05.2015 03:55 8,9 C 8,6 C 88 % 1006,4 hPa 0,0 mm 6,5 km/h (2 Bft) SW 225 7,0 C 6,7 km/h (2 Bft)
02.05.2015 04:00 8,9 C 8,7 C 88 % 1006,4 hPa 0,7 mm 6,0 km/h (2 Bft) SW 225 7,0 C 13,2 km/h (3 Bft)
02.05.2015 04:05 8,9 C 8,6 C 88 % 1006,4 hPa 0,0 mm 7,0 km/h (2 Bft) SW 225 7,0 C 11,1 km/h (2 Bft)
02.05.2015 04:10 8,8 C 8,6 C 88 % 1006,4 hPa 0,0 mm 6,5 km/h (2 Bft) W-SW 247 6,9 C 8,8 km/h (2 Bft)
02.05.2015 04:15 8,8 C 8,6 C 88 % 1006,4 hPa 0,0 mm 6,0 km/h (2 Bft) O-NO 67 6,9 C 14,0 km/h (3 Bft)
02.05.2015 04:20 8,9 C 8,5 C 88 % 1006,5 hPa 0,0 mm 8,0 km/h (2 Bft) W 270 7,0 C 19,9 km/h (4 Bft)
02.05.2015 04:25 8,8 C 8,4 C 87 % 1006,5 hPa 0,0 mm 8,0 km/h (2 Bft) SW 225 6,8 C 6,2 km/h (2 Bft)
02.05.2015 04:30 8,6 C 8,3 C 87 % 1006,5 hPa 0,0 mm 6,7 km/h (2 Bft) W 270 6,6 C 8,5 km/h (2 Bft)
02.05.2015 04:35 8,5 C 8,3 C 87 % 1006,5 hPa 0,0 mm 6,0 km/h (2 Bft) W-SW 247 6,5 C 6,0 km/h (2 Bft)
02.05.2015 04:40 8,5 C 8,3 C 86 % 1006,5 hPa 0,0 mm 5,7 km/h (1 Bft) W-NW 292 6,3 C 5,7 km/h (1 Bft)
02.05.2015 04:45 8,3 C 8,1 C 86 % 1006,5 hPa 0,0 mm 6,0 km/h (2 Bft) W-SW 247 6,1 C 8,3 km/h (2 Bft)
02.05.2015 04:50 8,3 C 8,1 C 86 % 1006,5 hPa 0,0 mm 6,2 km/h (2 Bft) W-SW 247 6,1 C 10,1 km/h (2 Bft)
02.05.2015 04:55 8,5 C 8,2 C 86 % 1006,5 hPa 0,0 mm 6,5 km/h (2 Bft) SW 225 6,3 C 8,5 km/h (2 Bft)
02.05.2015 05:00 8,5 C 8,2 C 86 % 1006,8 hPa 0,0 mm 6,5 km/h (2 Bft) W 270 6,3 C 8,8 km/h (2 Bft)
02.05.2015 05:05 8,5 C 8,3 C 86 % 1006,8 hPa 0,0 mm 5,2 km/h (1 Bft) SW 225 6,3 C 5,7 km/h (1 Bft)
02.05.2015 05:10 8,6 C 8,4 C 86 % 1006,8 hPa 0,0 mm 5,2 km/h (1 Bft) SW 225 6,4 C 2,6 km/h (1 Bft)
02.05.2015 05:15 8,6 C 8,4 C 86 % 1006,8 hPa 0,0 mm 3,6 km/h (1 Bft) S-SW 202 6,4 C 0,0 km/h (0 Bft)
02.05.2015 05:20 8,6 C 8,4 C 87 % 1007,0 hPa 0,0 mm 1,3 km/h (1 Bft) W-NW 292 6,6 C 0,0 km/h (0 Bft)
02.05.2015 05:25 8,5 C 8,3 C 87 % 1007,0 hPa 0,0 mm 1,8 km/h (1 Bft) SW 225 6,5 C 6,2 km/h (2 Bft)
02.05.2015 05:30 8,5 C 8,3 C 87 % 1007,0 hPa 0,0 mm 1,8 km/h (1 Bft) NW 315 6,5 C 0,0 km/h (0 Bft)
02.05.2015 05:35 8,4 C 8,2 C 87 % 1007,0 hPa 0,0 mm 1,0 km/h (0 Bft) W-NW 292 6,4 C 0,0 km/h (0 Bft)
02.05.2015 05:40 8,4 C 8,2 C 87 % 1007,4 hPa 0,0 mm 1,8 km/h (1 Bft) W-SW 247 6,4 C 3,6 km/h (1 Bft)
02.05.2015 05:45 8,5 C 8,3 C 87 % 1007,4 hPa 0,0 mm 3,9 km/h (1 Bft) W 270 6,5 C 0,0 km/h (0 Bft)
02.05.2015 05:50 8,4 C 8,2 C 87 % 1007,4 hPa 0,0 mm 3,6 km/h (1 Bft) S 180 6,4 C 3,6 km/h (1 Bft)
02.05.2015 05:55 8,3 C 8,1 C 87 % 1007,4 hPa 0,0 mm 3,9 km/h (1 Bft) SW 225 6,3 C 6,0 km/h (2 Bft)
02.05.2015 06:00 8,2 C 8,0 C 87 % 1007,8 hPa 0,0 mm 1,8 km/h (1 Bft) W 270 6,2 C 0,0 km/h (0 Bft)
02.05.2015 06:05 8,3 C 8,1 C 87 % 1007,8 hPa 0,0 mm 0,8 km/h (0 Bft) NW 315 6,3 C 0,0 km/h (0 Bft)
02.05.2015 06:10 8,3 C 8,2 C 87 % 1007,8 hPa 0,0 mm 0,5 km/h (0 Bft) N 360 6,3 C 0,0 km/h (0 Bft)
02.05.2015 06:15 8,5 C 8,3 C 88 % 1007,8 hPa 0,0 mm 2,6 km/h (1 Bft) N-NW 337 6,6 C 6,7 km/h (2 Bft)
02.05.2015 06:20 8,5 C 8,4 C 88 % 1008,3 hPa 0,0 mm 4,9 km/h (1 Bft) W-SW 247 6,6 C 3,9 km/h (1 Bft)
02.05.2015 06:25 8,6 C 8,5 C 88 % 1008,3 hPa 0,0 mm 4,1 km/h (1 Bft) W-SW 247 6,7 C 6,7 km/h (2 Bft)
02.05.2015 06:30 8,6 C 8,5 C 88 % 1008,3 hPa 0,0 mm 2,8 km/h (1 Bft) S-SW 202 6,7 C 6,0 km/h (2 Bft)
02.05.2015 06:35 8,7 C 8,6 C 89 % 1008,3 hPa 0,0 mm 3,4 km/h (1 Bft) O 90 7,0 C 3,1 km/h (1 Bft)
02.05.2015 06:40 8,7 C 8,6 C 89 % 1008,8 hPa 0,0 mm 2,8 km/h (1 Bft) S 180 7,0 C 2,8 km/h (1 Bft)
02.05.2015 06:45 9,1 C 8,8 C 85 % 1008,8 hPa 0,0 mm 7,8 km/h (2 Bft) W-NW 292 6,7 C 23,8 km/h (4 Bft)
02.05.2015 06:50 9,1 C 8,7 C 89 % 1008,8 hPa 0,0 mm 9,3 km/h (2 Bft) W-SW 247 7,4 C 4,7 km/h (1 Bft)
02.05.2015 06:55 9,2 C 8,9 C 88 % 1008,8 hPa 0,0 mm 8,3 km/h (2 Bft) SW 225 7,3 C 6,0 km/h (2 Bft)
02.05.2015 07:00 9,3 C 9,1 C 88 % 1008,8 hPa 0,0 mm 7,0 km/h (2 Bft) W-NW 292 7,4 C 9,8 km/h (2 Bft)
02.05.2015 07:05 9,3 C 9,1 C 88 % 1008,8 hPa 0,7 mm 7,0 km/h (2 Bft) NW 315 7,4 C 10,9 km/h (2 Bft)
02.05.2015 07:10 9,3 C 9,1 C 88 % 1008,8 hPa 0,0 mm 6,5 km/h (2 Bft) N 360 7,4 C 7,3 km/h (2 Bft)
02.05.2015 07:15 9,0 C 8,9 C 88 % 1008,8 hPa 0,0 mm 6,0 km/h (2 Bft) W-NW 292 7,1 C 9,8 km/h (2 Bft)
02.05.2015 07:20 8,9 C 8,8 C 88 % 1009,0 hPa 0,0 mm 6,7 km/h (2 Bft) W-NW 292 7,0 C 15,5 km/h (3 Bft)
02.05.2015 07:25 8,8 C 8,6 C 89 % 1009,0 hPa 0,0 mm 7,3 km/h (2 Bft) N-NW 337 7,1 C 5,2 km/h (1 Bft)
02.05.2015 07:30 8,7 C 8,4 C 89 % 1009,0 hPa 0,0 mm 8,0 km/h (2 Bft) NW 315 7,0 C 11,4 km/h (2 Bft)
02.05.2015 07:35 8,5 C 8,3 C 89 % 1009,0 hPa 0,7 mm 7,3 km/h (2 Bft) NW 315 6,8 C 4,7 km/h (1 Bft)
02.05.2015 07:40 8,5 C 8,4 C 89 % 1009,2 hPa 0,7 mm 4,9 km/h (1 Bft) W-SW 247 6,8 C 0,0 km/h (0 Bft)
02.05.2015 07:45 8,6 C 8,6 C 85 % 1009,2 hPa 0,0 mm 2,8 km/h (1 Bft) W 270 6,2 C 7,0 km/h (2 Bft)
02.05.2015 07:50 8,6 C 8,7 C 86 % 1009,2 hPa 0,0 mm 4,4 km/h (1 Bft) W 270 6,4 C 7,8 km/h (2 Bft)
02.05.2015 07:55 8,8 C 8,9 C 86 % 1009,2 hPa 0,0 mm 4,9 km/h (1 Bft) NW 315 6,6 C 0,0 km/h (0 Bft)
02.05.2015 08:00 8,7 C 8,8 C 86 % 1009,8 hPa 0,0 mm 5,4 km/h (1 Bft) W 270 6,5 C 10,9 km/h (2 Bft)
02.05.2015 08:05 8,6 C 8,5 C 89 % 1009,8 hPa 1,4 mm 5,4 km/h (1 Bft) W 270 6,9 C 2,6 km/h (1 Bft)
02.05.2015 08:10 8,5 C 8,5 C 86 % 1009,8 hPa 0,0 mm 3,1 km/h (1 Bft) S 180 6,3 C 4,1 km/h (1 Bft)
02.05.2015 08:15 8,5 C 8,4 C 89 % 1009,8 hPa 0,0 mm 1,8 km/h (1 Bft) W 270 6,8 C 7,5 km/h (2 Bft)
02.05.2015 08:20 8,5 C 8,4 C 89 % 1010,1 hPa 0,0 mm 2,3 km/h (1 Bft) S-SO 157 6,8 C 4,7 km/h (1 Bft)
02.05.2015 08:25 8,6 C 8,7 C 86 % 1010,1 hPa 0,0 mm 2,6 km/h (1 Bft) SW 225 6,4 C 4,7 km/h (1 Bft)
02.05.2015 08:30 8,9 C 9,8 C 86 % 1010,1 hPa 0,0 mm 2,6 km/h (1 Bft) W-SW 247 6,7 C 2,6 km/h (1 Bft)
02.05.2015 08:35 9,3 C 10,3 C 86 % 1010,1 hPa 0,0 mm 2,8 km/h (1 Bft) W-NW 292 7,1 C 5,2 km/h (1 Bft)
02.05.2015 08:40 9,4 C 10,3 C 86 % 1010,1 hPa 0,0 mm 3,6 km/h (1 Bft) W 270 7,2 C 4,9 km/h (1 Bft)
02.05.2015 08:45 9,2 C 9,6 C 86 % 1010,1 hPa 0,7 mm 3,6 km/h (1 Bft) W-NW 292 7,0 C 7,0 km/h (2 Bft)
02.05.2015 08:50 9,1 C 9,2 C 85 % 1010,1 hPa 0,0 mm 4,7 km/h (1 Bft) W-SW 247 6,7 C 3,9 km/h (1 Bft)
02.05.2015 08:55 9,0 C 9,0 C 85 % 1010,1 hPa 0,0 mm 3,4 km/h (1 Bft) SW 225 6,6 C 2,6 km/h (1 Bft)
02.05.2015 09:00 9,0 C 9,1 C 85 % 1010,1 hPa 0,7 mm 1,0 km/h (0 Bft) NW 315 6,6 C 5,4 km/h (1 Bft)
02.05.2015 09:05 8,9 C 8,8 C 88 % 1010,1 hPa 0,0 mm 2,3 km/h (1 Bft) NW 315 7,0 C 6,7 km/h (2 Bft)
02.05.2015 09:10 8,9 C 8,7 C 88 % 1010,1 hPa 0,0 mm 3,4 km/h (1 Bft) NO 45 7,0 C 2,8 km/h (1 Bft)
02.05.2015 09:15 8,8 C 8,7 C 88 % 1010,1 hPa 0,0 mm 3,6 km/h (1 Bft) N-NO 22 6,9 C 8,0 km/h (2 Bft)
02.05.2015 09:20 8,7 C 8,6 C 88 % 1010,8 hPa 0,7 mm 4,9 km/h (1 Bft) W-SW 247 6,8 C 3,1 km/h (1 Bft)
02.05.2015 09:25 8,6 C 8,6 C 86 % 1010,8 hPa 0,7 mm 4,9 km/h (1 Bft) S 180 6,4 C 4,7 km/h (1 Bft)
02.05.2015 09:30 8,7 C 8,8 C 86 % 1010,8 hPa 0,0 mm 4,9 km/h (1 Bft) SW 225 6,5 C 4,1 km/h (1 Bft)
02.05.2015 09:35 9,1 C 9,4 C 86 % 1010,8 hPa 0,0 mm 6,0 km/h (2 Bft) W 270 6,9 C 8,5 km/h (2 Bft)
02.05.2015 09:40 9,2 C 9,7 C 86 % 1010,9 hPa 0,0 mm 6,0 km/h (2 Bft) W-NW 292 7,0 C 4,9 km/h (1 Bft)
02.05.2015 09:45 9,4 C 9,9 C 86 % 1010,9 hPa 0,0 mm 4,7 km/h (1 Bft) W-SW 247 7,2 C 4,1 km/h (1 Bft)
02.05.2015 09:50 9,4 C 10,0 C 86 % 1010,9 hPa 0,0 mm 3,9 km/h (1 Bft) W-NW 292 7,2 C 3,6 km/h (1 Bft)
02.05.2015 09:55 9,4 C 9,9 C 86 % 1010,9 hPa 0,0 mm 5,4 km/h (1 Bft) W 270 7,2 C 7,8 km/h (2 Bft)
02.05.2015 10:00 9,4 C 9,6 C 86 % 1011,0 hPa 0,7 mm 4,9 km/h (1 Bft) W-NW 292 7,2 C 4,7 km/h (1 Bft)
02.05.2015 10:05 9,3 C 9,5 C 86 % 1011,0 hPa 0,0 mm 3,6 km/h (1 Bft) W 270 7,1 C 5,2 km/h (1 Bft)
02.05.2015 10:10 9,2 C 9,3 C 86 % 1011,0 hPa 2,1 mm 4,1 km/h (1 Bft) NW 315 7,0 C 4,9 km/h (1 Bft)
02.05.2015 10:15 9,1 C 9,1 C 87 % 1011,0 hPa 1,4 mm 3,6 km/h (1 Bft) W-SW 247 7,1 C 4,9 km/h (1 Bft)
02.05.2015 10:20 9,0 C 8,9 C 87 % 1010,8 hPa 0,0 mm 4,7 km/h (1 Bft) W 270 7,0 C 6,5 km/h (2 Bft)
02.05.2015 10:25 8,9 C 8,9 C 86 % 1010,8 hPa 0,7 mm 7,3 km/h (2 Bft) W 270 6,7 C 6,5 km/h (2 Bft)
02.05.2015 10:30 9,0 C 9,0 C 85 % 1010,8 hPa 0,7 mm 5,7 km/h (1 Bft) W-NW 292 6,6 C 9,8 km/h (2 Bft)
02.05.2015 10:35 9,0 C 9,0 C 85 % 1010,8 hPa 0,0 mm 4,9 km/h (1 Bft) W 270 6,6 C 8,0 km/h (2 Bft)
02.05.2015 10:40 9,0 C 9,0 C 85 % 1011,1 hPa 0,0 mm 5,2 km/h (1 Bft) S 180 6,6 C 0,0 km/h (0 Bft)
02.05.2015 10:45 9,1 C 9,3 C 85 % 1011,1 hPa 0,0 mm 4,7 km/h (1 Bft) W 270 6,7 C 4,1 km/h (1 Bft)
02.05.2015 10:50 9,1 C 9,3 C 85 % 1011,1 hPa 0,7 mm 4,9 km/h (1 Bft) W 270 6,7 C 8,3 km/h (2 Bft)
02.05.2015 10:55 9,1 C 9,2 C 85 % 1011,1 hPa 0,0 mm 6,0 km/h (2 Bft) W 270 6,7 C 7,5 km/h (2 Bft)
02.05.2015 11:00 9,1 C 9,2 C 85 % 1011,4 hPa 0,7 mm 6,7 km/h (2 Bft) W-SW 247 6,7 C 6,7 km/h (2 Bft)
02.05.2015 11:05 9,5 C 10,2 C 86 % 1011,4 hPa 0,0 mm 6,0 km/h (2 Bft) W-SW 247 7,3 C 6,7 km/h (2 Bft)
02.05.2015 11:10 9,8 C 10,6 C 86 % 1011,4 hPa 0,0 mm 5,7 km/h (1 Bft) W 270 7,6 C 7,3 km/h (2 Bft)
02.05.2015 11:15 10,1 C 10,9 C 85 % 1011,4 hPa 0,0 mm 4,9 km/h (1 Bft) W 270 7,7 C 15,3 km/h (3 Bft)
02.05.2015 11:20 10,0 C 10,6 C 85 % 1011,3 hPa 0,0 mm 6,0 km/h (2 Bft) W-SW 247 7,6 C 6,2 km/h (2 Bft)
02.05.2015 11:25 10,2 C 10,8 C 85 % 1011,3 hPa 0,0 mm 6,0 km/h (2 Bft) W 270 7,8 C 8,0 km/h (2 Bft)
02.05.2015 11:30 10,5 C 11,3 C 85 % 1011,3 hPa 0,0 mm 6,7 km/h (2 Bft) N 360 8,1 C 14,0 km/h (3 Bft)
02.05.2015 11:35 10,3 C 10,7 C 85 % 1011,3 hPa 0,0 mm 7,5 km/h (2 Bft) S 180 7,9 C 8,8 km/h (2 Bft)
02.05.2015 11:40 10,2 C 10,3 C 85 % 1011,2 hPa 0,0 mm 8,0 km/h (2 Bft) NW 315 7,8 C 8,8 km/h (2 Bft)
02.05.2015 11:45 10,1 C 10,4 C 85 % 1011,2 hPa 0,0 mm 4,9 km/h (1 Bft) NW 315 7,7 C 3,4 km/h (1 Bft)
02.05.2015 11:50 10,1 C 10,3 C 85 % 1011,2 hPa 0,0 mm 2,3 km/h (1 Bft) NW 315 7,7 C 0,0 km/h (0 Bft)
02.05.2015 11:55 10,1 C 10,2 C 85 % 1011,2 hPa 0,7 mm 2,6 km/h (1 Bft) N-NW 337 7,7 C 12,9 km/h (3 Bft)
02.05.2015 12:00 10,0 C 10,0 C 85 % 1011,2 hPa 0,0 mm 3,6 km/h (1 Bft) NO 45 7,6 C 6,2 km/h (2 Bft)
02.05.2015 12:05 9,9 C 10,0 C 85 % 1011,2 hPa 0,0 mm 4,4 km/h (1 Bft) NW 315 7,5 C 0,0 km/h (0 Bft)
02.05.2015 12:10 10,0 C 10,2 C 85 % 1011,2 hPa 0,0 mm 4,7 km/h (1 Bft) N-NW 337 7,6 C 6,7 km/h (2 Bft)
02.05.2015 12:15 10,1 C 10,5 C 85 % 1011,2 hPa 0,0 mm 4,4 km/h (1 Bft) NO 45 7,7 C 9,3 km/h (2 Bft)
02.05.2015 12:20 10,2 C 10,6 C 85 % 1011,4 hPa 0,0 mm 4,1 km/h (1 Bft) NW 315 7,8 C 3,9 km/h (1 Bft)
02.05.2015 12:25 10,2 C 10,5 C 85 % 1011,4 hPa 0,0 mm 2,3 km/h (1 Bft) N 360 7,8 C 6,5 km/h (2 Bft)
02.05.2015 12:30 10,1 C 10,3 C 85 % 1011,4 hPa 0,0 mm 1,3 km/h (1 Bft) O-NO 67 7,7 C 0,0 km/h (0 Bft)
02.05.2015 12:35 10,1 C 10,3 C 85 % 1011,4 hPa 0,0 mm 1,6 km/h (1 Bft) W-SW 247 7,7 C 2,8 km/h (1 Bft)
02.05.2015 12:40 10,1 C 10,2 C 85 % 1011,4 hPa 0,7 mm 2,8 km/h (1 Bft) O 90 7,7 C 3,1 km/h (1 Bft)
02.05.2015 12:45 10,1 C 10,5 C 85 % 1011,4 hPa 0,7 mm 2,8 km/h (1 Bft) NW 315 7,7 C 3,4 km/h (1 Bft)
02.05.2015 12:50 10,2 C 10,7 C 85 % 1011,4 hPa 0,0 mm 1,6 km/h (1 Bft) N 360 7,8 C 0,0 km/h (0 Bft)
02.05.2015 12:55 10,5 C 10,9 C 85 % 1011,4 hPa 0,0 mm 0,5 km/h (0 Bft) N-NO 22 8,1 C 0,0 km/h (0 Bft)
02.05.2015 13:00 10,4 C 11,1 C 85 % 1011,6 hPa 0,0 mm 0,3 km/h (0 Bft) O-NO 67 8,0 C 0,0 km/h (0 Bft)
02.05.2015 13:05 10,4 C 11,1 C 85 % 1011,6 hPa 0,0 mm 1,6 km/h (1 Bft) O-NO 67 8,0 C 4,9 km/h (1 Bft)
02.05.2015 13:10 10,3 C 10,8 C 85 % 1011,6 hPa 0,0 mm 3,1 km/h (1 Bft) N-NO 22 7,9 C 7,8 km/h (2 Bft)
02.05.2015 13:15 10,2 C 10,5 C 85 % 1011,6 hPa 0,0 mm 4,4 km/h (1 Bft) N-NO 22 7,8 C 4,9 km/h (1 Bft)
02.05.2015 13:20 10,2 C 10,3 C 85 % 1011,4 hPa 0,0 mm 3,9 km/h (1 Bft) N-NO 22 7,8 C 0,0 km/h (0 Bft)
02.05.2015 13:25 10,1 C 10,1 C 85 % 1011,4 hPa 0,7 mm 4,7 km/h (1 Bft) W-NW 292 7,7 C 3,1 km/h (1 Bft)
02.05.2015 13:30 10,1 C 10,2 C 85 % 1011,4 hPa 0,0 mm 3,9 km/h (1 Bft) O-NO 67 7,7 C 0,0 km/h (0 Bft)
02.05.2015 13:35 10,1 C 10,4 C 85 % 1011,4 hPa 0,0 mm 3,1 km/h (1 Bft) N-NW 337 7,7 C 7,3 km/h (2 Bft)
02.05.2015 13:40 10,3 C 10,7 C 85 % 1011,5 hPa 0,7 mm 2,8 km/h (1 Bft) NW 315 7,9 C 4,1 km/h (1 Bft)
02.05.2015 13:45 10,4 C 10,7 C 85 % 1011,5 hPa 0,0 mm 4,4 km/h (1 Bft) NW 315 8,0 C 8,8 km/h (2 Bft)
02.05.2015 13:50 10,2 C 10,4 C 85 % 1011,5 hPa 0,7 mm 5,2 km/h (1 Bft) N-NW 337 7,8 C 5,4 km/h (1 Bft)
02.05.2015 13:55 10,2 C 10,3 C 85 % 1011,5 hPa 0,7 mm 3,6 km/h (1 Bft) NO 45 7,8 C 0,0 km/h (0 Bft)
02.05.2015 14:00 10,2 C 10,5 C 85 % 1011,6 hPa 0,0 mm 1,8 km/h (1 Bft) O 90 7,8 C 0,0 km/h (0 Bft)
02.05.2015 14:05 10,3 C 10,9 C 85 % 1011,6 hPa 0,0 mm 0,8 km/h (0 Bft) SO 135 7,9 C 0,0 km/h (0 Bft)
02.05.2015 14:10 10,5 C 11,2 C 86 % 1011,6 hPa 0,0 mm 0,3 km/h (0 Bft) S 180 8,3 C 0,0 km/h (0 Bft)
02.05.2015 14:15 10,4 C 11,2 C 85 % 1011,6 hPa 0,0 mm 0,3 km/h (0 Bft) O-SO 112 8,0 C 3,1 km/h (1 Bft)
02.05.2015 14:20 10,4 C 11,2 C 85 % 1011,6 hPa 0,0 mm 1,6 km/h (1 Bft) O 90 8,0 C 0,0 km/h (0 Bft)
02.05.2015 14:25 10,4 C 10,8 C 86 % 1011,6 hPa 0,0 mm 3,1 km/h (1 Bft) N 360 8,2 C 6,7 km/h (2 Bft)
02.05.2015 14:30 10,5 C 10,9 C 86 % 1011,6 hPa 0,7 mm 3,1 km/h (1 Bft) N-NO 22 8,3 C 3,4 km/h (1 Bft)
02.05.2015 14:35 10,9 C 11,9 C 86 % 1011,6 hPa 0,0 mm 4,4 km/h (1 Bft) NO 45 8,7 C 4,9 km/h (1 Bft)
02.05.2015 14:40 11,3 C 12,9 C 86 % 1011,7 hPa 0,0 mm 2,8 km/h (1 Bft) O-SO 112 9,0 C 0,0 km/h (0 Bft)
02.05.2015 14:45 11,1 C 12,8 C 85 % 1011,7 hPa 0,0 mm 3,1 km/h (1 Bft) O-NO 67 8,7 C 6,2 km/h (2 Bft)
02.05.2015 14:50 11,0 C 12,4 C 85 % 1011,7 hPa 0,0 mm 3,4 km/h (1 Bft) O 90 8,6 C 4,7 km/h (1 Bft)
02.05.2015 14:55 11,1 C 12,2 C 85 % 1011,7 hPa 0,0 mm 4,1 km/h (1 Bft) S 180 8,7 C 0,0 km/h (0 Bft)
02.05.2015 15:00 11,0 C 11,6 C 85 % 1011,6 hPa 0,0 mm 1,6 km/h (1 Bft) NW 315 8,6 C 3,4 km/h (1 Bft)
02.05.2015 15:05 11,0 C 11,3 C 85 % 1011,6 hPa 0,0 mm 1,0 km/h (0 Bft) O 90 8,6 C 0,0 km/h (0 Bft)
02.05.2015 15:10 11,1 C 11,6 C 85 % 1011,6 hPa 0,0 mm 0,5 km/h (0 Bft) O-SO 112 8,7 C 0,0 km/h (0 Bft)
02.05.2015 15:15 11,3 C 12,0 C 85 % 1011,6 hPa 0,0 mm 0,0 km/h (0 Bft) O-SO 112 8,9 C 0,0 km/h (0 Bft)
02.05.2015 15:20 11,5 C 12,2 C 85 % 1011,7 hPa 0,0 mm 0,8 km/h (0 Bft) NO 45 9,1 C 0,0 km/h (0 Bft)
02.05.2015 15:25 11,9 C 12,8 C 85 % 1011,7 hPa 0,0 mm 1,0 km/h (0 Bft) S-SW 202 9,5 C 0,0 km/h (0 Bft)
02.05.2015 15:30 12,0 C 13,3 C 85 % 1011,7 hPa 0,0 mm 1,3 km/h (1 Bft) N-NW 337 9,6 C 0,0 km/h (0 Bft)
02.05.2015 15:35 12,2 C 13,7 C 84 % 1011,7 hPa 0,0 mm 1,8 km/h (1 Bft) N-NO 22 9,6 C 8,0 km/h (2 Bft)
02.05.2015 15:40 12,2 C 13,4 C 84 % 1011,7 hPa 0,0 mm 2,8 km/h (1 Bft) O-NO 67 9,6 C 6,7 km/h (2 Bft)
02.05.2015 15:45 12,0 C 13,2 C 84 % 1011,7 hPa 0,0 mm 4,7 km/h (1 Bft) N-NW 337 9,4 C 5,2 km/h (1 Bft)
02.05.2015 15:50 11,9 C 13,3 C 84 % 1011,7 hPa 0,0 mm 5,2 km/h (1 Bft) O-NO 67 9,3 C 0,0 km/h (0 Bft)
02.05.2015 15:55 11,9 C 13,4 C 84 % 1011,7 hPa 0,0 mm 4,4 km/h (1 Bft) N-NO 22 9,3 C 5,2 km/h (1 Bft)
02.05.2015 16:00 11,9 C 13,4 C 84 % 1011,7 hPa 0,0 mm 3,9 km/h (1 Bft) O 90 9,3 C 3,4 km/h (1 Bft)
02.05.2015 16:05 11,9 C 13,5 C 84 % 1011,7 hPa 0,0 mm 4,1 km/h (1 Bft) O-NO 67 9,3 C 8,3 km/h (2 Bft)
02.05.2015 16:10 12,0 C 13,6 C 84 % 1011,7 hPa 0,0 mm 4,1 km/h (1 Bft) NO 45 9,4 C 9,1 km/h (2 Bft)
02.05.2015 16:15 11,9 C 13,5 C 84 % 1011,7 hPa 0,0 mm 4,9 km/h (1 Bft) O-SO 112 9,3 C 3,4 km/h (1 Bft)
02.05.2015 16:20 11,8 C 13,4 C 84 % 1011,5 hPa 0,0 mm 6,2 km/h (2 Bft) O-NO 67 9,2 C 11,1 km/h (2 Bft)
02.05.2015 16:25 11,5 C 12,8 C 84 % 1011,5 hPa 0,0 mm 7,5 km/h (2 Bft) N-NO 22 8,9 C 7,3 km/h (2 Bft)
02.05.2015 16:30 11,5 C 12,4 C 85 % 1011,5 hPa 0,0 mm 7,3 km/h (2 Bft) N-NO 22 9,1 C 8,3 km/h (2 Bft)
02.05.2015 16:35 11,4 C 12,3 C 85 % 1011,5 hPa 0,0 mm 7,0 km/h (2 Bft) O-NO 67 9,0 C 9,6 km/h (2 Bft)
02.05.2015 16:40 11,4 C 12,3 C 85 % 1011,8 hPa 0,0 mm 7,3 km/h (2 Bft) NO 45 9,0 C 10,6 km/h (2 Bft)
02.05.2015 16:45 11,3 C 12,1 C 85 % 1011,8 hPa 0,0 mm 6,7 km/h (2 Bft) N-NO 22 8,9 C 8,5 km/h (2 Bft)
02.05.2015 16:50 11,3 C 12,0 C 85 % 1011,8 hPa 0,0 mm 6,2 km/h (2 Bft) N-NO 22 8,9 C 8,5 km/h (2 Bft)
02.05.2015 16:55 11,3 C 11,9 C 85 % 1011,8 hPa 0,0 mm 7,0 km/h (2 Bft) O-NO 67 8,9 C 10,1 km/h (2 Bft)
02.05.2015 17:00 11,4 C 12,1 C 85 % 1011,7 hPa 0,0 mm 6,2 km/h (2 Bft) O 90 9,0 C 4,4 km/h (1 Bft)
02.05.2015 17:05 11,8 C 13,3 C 85 % 1011,7 hPa 0,0 mm 3,4 km/h (1 Bft) O 90 9,4 C 4,9 km/h (1 Bft)
02.05.2015 17:10 11,8 C 13,6 C 85 % 1011,7 hPa 0,0 mm 4,1 km/h (1 Bft) O-SO 112 9,4 C 6,5 km/h (2 Bft)
02.05.2015 17:15 11,6 C 13,5 C 85 % 1011,7 hPa 0,0 mm 5,2 km/h (1 Bft) O 90 9,2 C 6,5 km/h (2 Bft)
02.05.2015 17:20 11,7 C 13,3 C 85 % 1011,8 hPa 0,0 mm 3,6 km/h (1 Bft) NO 45 9,3 C 2,8 km/h (1 Bft)
02.05.2015 17:25 11,7 C 13,5 C 84 % 1011,8 hPa 0,0 mm 2,1 km/h (1 Bft) O-NO 67 9,1 C 4,7 km/h (1 Bft)
02.05.2015 17:30 11,6 C 13,3 C 84 % 1011,8 hPa 0,0 mm 3,4 km/h (1 Bft) SO 135 9,0 C 4,4 km/h (1 Bft)
02.05.2015 17:35 11,6 C 13,0 C 84 % 1011,8 hPa 0,0 mm 3,4 km/h (1 Bft) NO 45 9,0 C 0,0 km/h (0 Bft)
02.05.2015 17:40 11,5 C 12,8 C 84 % 1011,8 hPa 0,0 mm 1,8 km/h (1 Bft) O-NO 67 8,9 C 2,8 km/h (1 Bft)
02.05.2015 17:45 11,5 C 12,7 C 84 % 1011,8 hPa 0,0 mm 1,8 km/h (1 Bft) O-NO 67 8,9 C 2,8 km/h (1 Bft)
02.05.2015 17:50 11,5 C 12,5 C 84 % 1011,8 hPa 0,0 mm 2,6 km/h (1 Bft) O-SO 112 8,9 C 2,8 km/h (1 Bft)
02.05.2015 17:55 11,6 C 12,5 C 84 % 1011,8 hPa 0,0 mm 2,3 km/h (1 Bft) O-NO 67 9,0 C 2,8 km/h (1 Bft)
02.05.2015 18:00 11,6 C 12,7 C 84 % 1011,6 hPa 0,0 mm 0,5 km/h (0 Bft) O-NO 67 9,0 C 3,6 km/h (1 Bft)
02.05.2015 18:05 11,7 C 12,9 C 84 % 1011,6 hPa 0,0 mm 0,8 km/h (0 Bft) O 90 9,1 C 3,9 km/h (1 Bft)
02.05.2015 18:10 11,7 C 12,9 C 84 % 1011,6 hPa 0,0 mm 1,3 km/h (1 Bft) O 90 9,1 C 3,6 km/h (1 Bft)
02.05.2015 18:15 11,8 C 13,0 C 84 % 1011,6 hPa 0,0 mm 1,0 km/h (0 Bft) NO 45 9,2 C 0,0 km/h (0 Bft)
02.05.2015 18:20 11,8 C 13,0 C 84 % 1011,6 hPa 0,0 mm 1,0 km/h (0 Bft) NO 45 9,2 C 3,9 km/h (1 Bft)
02.05.2015 18:25 11,7 C 12,8 C 84 % 1011,6 hPa 0,0 mm 1,6 km/h (1 Bft) NO 45 9,1 C 0,0 km/h (0 Bft)
02.05.2015 18:30 11,8 C 12,7 C 84 % 1011,6 hPa 0,0 mm 2,1 km/h (1 Bft) O 90 9,2 C 0,0 km/h (0 Bft)
02.05.2015 18:35 11,8 C 12,7 C 84 % 1011,6 hPa 0,0 mm 1,0 km/h (0 Bft) O-NO 67 9,2 C 0,0 km/h (0 Bft)
02.05.2015 18:40 11,7 C 12,4 C 84 % 1011,6 hPa 0,0 mm 1,3 km/h (1 Bft) NO 45 9,1 C 0,0 km/h (0 Bft)
02.05.2015 18:45 11,7 C 12,3 C 84 % 1011,6 hPa 0,0 mm 1,3 km/h (1 Bft) O 90 9,1 C 0,0 km/h (0 Bft)
02.05.2015 18:50 11,7 C 12,2 C 84 % 1011,6 hPa 0,0 mm 0,3 km/h (0 Bft) O 90 9,1 C 0,0 km/h (0 Bft)
02.05.2015 18:55 11,7 C 12,2 C 84 % 1011,6 hPa 0,0 mm 0,0 km/h (0 Bft) SO 135 9,1 C 0,0 km/h (0 Bft)
02.05.2015 19:00 11,6 C 12,1 C 84 % 1011,8 hPa 0,0 mm 0,3 km/h (0 Bft) O-NO 67 9,0 C 2,8 km/h (1 Bft)
02.05.2015 19:05 11,5 C 11,9 C 85 % 1011,8 hPa 0,0 mm 0,3 km/h (0 Bft) O-NO 67 9,1 C 0,0 km/h (0 Bft)
02.05.2015 19:10 11,5 C 11,9 C 84 % 1011,8 hPa 0,0 mm 0,0 km/h (0 Bft) SO 135 8,9 C 0,0 km/h (0 Bft)
02.05.2015 19:15 11,4 C 11,8 C 84 % 1011,8 hPa 0,0 mm 0,8 km/h (0 Bft) NO 45 8,8 C 6,7 km/h (2 Bft)
02.05.2015 19:20 11,4 C 11,5 C 86 % 1011,4 hPa 0,0 mm 3,6 km/h (1 Bft) O-NO 67 9,1 C 7,8 km/h (2 Bft)
02.05.2015 19:25 11,2 C 11,3 C 86 % 1011,4 hPa 0,0 mm 4,1 km/h (1 Bft) NO 45 8,9 C 5,2 km/h (1 Bft)
02.05.2015 19:30 11,1 C 11,2 C 85 % 1011,4 hPa 0,0 mm 3,4 km/h (1 Bft) O 90 8,7 C 2,6 km/h (1 Bft)
02.05.2015 19:35 11,0 C 11,0 C 86 % 1011,4 hPa 0,0 mm 2,1 km/h (1 Bft) O-NO 67 8,7 C 0,0 km/h (0 Bft)
02.05.2015 19:40 10,9 C 10,9 C 86 % 1011,6 hPa 0,0 mm 2,1 km/h (1 Bft) O-NO 67 8,7 C 0,0 km/h (0 Bft)
02.05.2015 19:45 10,8 C 10,8 C 86 % 1011,6 hPa 0,0 mm 1,3 km/h (1 Bft) O-NO 67 8,6 C 0,0 km/h (0 Bft)
02.05.2015 19:50 10,7 C 10,6 C 86 % 1011,6 hPa 0,0 mm 0,0 km/h (0 Bft) O-NO 67 8,5 C 0,0 km/h (0 Bft)
02.05.2015 19:55 10,6 C 10,5 C 86 % 1011,6 hPa 0,0 mm 0,0 km/h (0 Bft) O-NO 67 8,4 C 0,0 km/h (0 Bft)
02.05.2015 20:00 10,5 C 10,4 C 87 % 1011,7 hPa 0,0 mm 0,0 km/h (0 Bft) NO 45 8,4 C 0,0 km/h (0 Bft)
02.05.2015 20:05 10,3 C 10,2 C 87 % 1011,7 hPa 0,7 mm 0,3 km/h (0 Bft) O 90 8,2 C 2,8 km/h (1 Bft)
02.05.2015 20:10 10,3 C 10,2 C 88 % 1011,7 hPa 0,0 mm 0,3 km/h (0 Bft) NO 45 8,4 C 0,0 km/h (0 Bft)
02.05.2015 20:15 10,2 C 10,1 C 88 % 1011,7 hPa 0,0 mm 0,0 km/h (0 Bft) O-SO 112 8,3 C 0,0 km/h (0 Bft)
02.05.2015 20:20 10,2 C 10,1 C 88 % 1011,8 hPa 0,0 mm 0,0 km/h (0 Bft) O-SO 112 8,3 C 0,0 km/h (0 Bft)
02.05.2015 20:25 10,1 C 10,0 C 88 % 1011,8 hPa 0,0 mm 0,0 km/h (0 Bft) SO 135 8,2 C 0,0 km/h (0 Bft)
02.05.2015 20:30 10,1 C 10,0 C 88 % 1011,8 hPa 0,0 mm 0,0 km/h (0 Bft) N-NO 22 8,2 C 0,0 km/h (0 Bft)
02.05.2015 20:35 10,1 C 10,0 C 88 % 1011,8 hPa 0,0 mm 0,0 km/h (0 Bft) N-NO 22 8,2 C 0,0 km/h (0 Bft)
02.05.2015 20:40 10,0 C 9,9 C 88 % 1011,8 hPa 0,0 mm 0,0 km/h (0 Bft) SO 135 8,1 C 0,0 km/h (0 Bft)
02.05.2015 20:45 10,1 C 10,0 C 88 % 1011,8 hPa 0,0 mm 0,0 km/h (0 Bft) O-SO 112 8,2 C 0,0 km/h (0 Bft)
02.05.2015 20:50 10,1 C 10,0 C 88 % 1011,8 hPa 0,0 mm 0,0 km/h (0 Bft) O-SO 112 8,2 C 0,0 km/h (0 Bft)
02.05.2015 20:55 10,0 C 9,9 C 89 % 1011,8 hPa 0,0 mm 0,0 km/h (0 Bft) O-SO 112 8,3 C 0,0 km/h (0 Bft)
02.05.2015 21:00 10,0 C 9,9 C 89 % 1011,6 hPa 0,0 mm 0,0 km/h (0 Bft) SO 135 8,3 C 0,0 km/h (0 Bft)
02.05.2015 21:05 9,9 C 9,8 C 89 % 1011,6 hPa 0,0 mm 0,0 km/h (0 Bft) O-NO 67 8,2 C 0,0 km/h (0 Bft)
02.05.2015 21:10 9,8 C 9,7 C 89 % 1011,6 hPa 0,0 mm 0,0 km/h (0 Bft) O-NO 67 8,1 C 0,0 km/h (0 Bft)
02.05.2015 21:15 9,8 C 9,7 C 89 % 1011,6 hPa 0,0 mm 0,0 km/h (0 Bft) SO 135 8,1 C 0,0 km/h (0 Bft)
02.05.2015 21:20 9,7 C 9,6 C 89 % 1011,6 hPa 0,0 mm 0,0 km/h (0 Bft) O-NO 67 8,0 C 0,0 km/h (0 Bft)
02.05.2015 21:25 9,8 C 9,7 C 89 % 1011,6 hPa 0,0 mm 0,0 km/h (0 Bft) N-NW 337 8,1 C 0,0 km/h (0 Bft)
02.05.2015 21:30 9,8 C 9,7 C 89 % 1011,6 hPa 0,0 mm 0,0 km/h (0 Bft) O-NO 67 8,1 C 0,0 km/h (0 Bft)
02.05.2015 21:35 9,7 C 9,6 C 89 % 1011,6 hPa 0,7 mm 0,0 km/h (0 Bft) N-NO 22 8,0 C 0,0 km/h (0 Bft)
02.05.2015 21:40 9,7 C 9,6 C 89 % 1011,8 hPa 0,0 mm 0,0 km/h (0 Bft) NW 315 8,0 C 0,0 km/h (0 Bft)
02.05.2015 21:45 9,6 C 9,5 C 89 % 1011,8 hPa 0,0 mm 0,0 km/h (0 Bft) O 90 7,9 C 0,0 km/h (0 Bft)
02.05.2015 21:50 9,6 C 9,5 C 89 % 1011,8 hPa 0,0 mm 0,0 km/h (0 Bft) W-NW 292 7,9 C 0,0 km/h (0 Bft)
02.05.2015 21:55 9,5 C 9,4 C 89 % 1011,8 hPa 0,0 mm 0,0 km/h (0 Bft) W-SW 247 7,8 C 0,0 km/h (0 Bft)
02.05.2015 22:00 9,5 C 9,4 C 89 % 1011,7 hPa 0,0 mm 0,0 km/h (0 Bft) S 180 7,8 C 0,0 km/h (0 Bft)
02.05.2015 22:05 9,3 C 9,2 C 89 % 1011,7 hPa 0,0 mm 0,0 km/h (0 Bft) S 180 7,6 C 0,0 km/h (0 Bft)
02.05.2015 22:10 9,3 C 9,2 C 89 % 1011,7 hPa 0,0 mm 0,0 km/h (0 Bft) S 180 7,6 C 0,0 km/h (0 Bft)
02.05.2015 22:15 9,2 C 9,1 C 90 % 1011,7 hPa 0,0 mm 0,0 km/h (0 Bft) S 180 7,6 C 0,0 km/h (0 Bft)
02.05.2015 22:20 9,1 C 9,0 C 90 % 1011,3 hPa 0,0 mm 0,0 km/h (0 Bft) S 180 7,5 C 0,0 km/h (0 Bft)
02.05.2015 22:25 9,2 C 9,0 C 90 % 1011,3 hPa 0,0 mm 0,0 km/h (0 Bft) S-SO 157 7,6 C 0,0 km/h (0 Bft)
02.05.2015 22:30 9,1 C 9,0 C 90 % 1011,3 hPa 0,0 mm 0,0 km/h (0 Bft) S 180 7,5 C 0,0 km/h (0 Bft)
02.05.2015 22:35 9,1 C 9,0 C 90 % 1011,3 hPa 0,0 mm 0,0 km/h (0 Bft) S 180 7,5 C 0,0 km/h (0 Bft)
02.05.2015 22:40 9,1 C 9,0 C 90 % 1011,3 hPa 0,0 mm 0,0 km/h (0 Bft) SW 225 7,5 C 0,0 km/h (0 Bft)
02.05.2015 22:45 9,2 C 9,1 C 90 % 1011,3 hPa 0,0 mm 0,0 km/h (0 Bft) S 180 7,6 C 0,0 km/h (0 Bft)
02.05.2015 22:50 9,2 C 9,1 C 90 % 1011,3 hPa 0,0 mm 0,0 km/h (0 Bft) S 180 7,6 C 0,0 km/h (0 Bft)
02.05.2015 22:55 9,2 C 9,1 C 90 % 1011,3 hPa 0,0 mm 0,0 km/h (0 Bft) S 180 7,6 C 0,0 km/h (0 Bft)
02.05.2015 23:00 9,2 C 9,1 C 90 % 1011,2 hPa 0,0 mm 0,0 km/h (0 Bft) W-SW 247 7,6 C 0,0 km/h (0 Bft)
02.05.2015 23:05 9,1 C 9,0 C 90 % 1011,2 hPa 0,0 mm 0,0 km/h (0 Bft) W-SW 247 7,5 C 0,0 km/h (0 Bft)
02.05.2015 23:10 9,1 C 9,0 C 90 % 1011,2 hPa 0,0 mm 0,0 km/h (0 Bft) SW 225 7,5 C 0,0 km/h (0 Bft)
02.05.2015 23:15 9,2 C 9,1 C 90 % 1011,2 hPa 0,0 mm 0,0 km/h (0 Bft) S-SO 157 7,6 C 0,0 km/h (0 Bft)
02.05.2015 23:20 9,1 C 9,0 C 90 % 1011,4 hPa 0,0 mm 0,0 km/h (0 Bft) S-SO 157 7,5 C 0,0 km/h (0 Bft)
02.05.2015 23:25 9,1 C 9,0 C 90 % 1011,4 hPa 0,0 mm 0,0 km/h (0 Bft) SW 225 7,5 C 0,0 km/h (0 Bft)
02.05.2015 23:30 9,1 C 9,0 C 90 % 1011,4 hPa 0,0 mm 0,0 km/h (0 Bft) S-SO 157 7,5 C 0,0 km/h (0 Bft)
02.05.2015 23:35 9,1 C 9,0 C 90 % 1011,4 hPa 0,0 mm 0,0 km/h (0 Bft) SW 225 7,5 C 0,0 km/h (0 Bft)
02.05.2015 23:40 9,1 C 9,0 C 90 % 1011,3 hPa 0,0 mm 0,0 km/h (0 Bft) S 180 7,5 C 0,0 km/h (0 Bft)
02.05.2015 23:45 9,1 C 9,0 C 90 % 1011,3 hPa 0,0 mm 0,0 km/h (0 Bft) SO 135 7,5 C 0,0 km/h (0 Bft)
02.05.2015 23:50 9,1 C 9,0 C 90 % 1011,3 hPa 0,0 mm 0,0 km/h (0 Bft) SO 135 7,5 C 0,0 km/h (0 Bft)
02.05.2015 23:55 9,1 C 9,0 C 90 % 1011,3 hPa 0,0 mm 0,0 km/h (0 Bft) S-SO 157 7,5 C 0,0 km/h (0 Bft)
_ Min-Zeit 06:00 06:00 19:15 00:35 - 23:55 - - 04:50 23:55
Minimum _ 8,2 C 8,0 C 84 % 1005,1 hPa - 0,0 km/h (0 Bft) - - 6,1 C 0,0 km/h (0 Bft)
_ Max-Zeit 15:40 15:35 00:10 21:55 10:10 06:50 - - 15:40 06:45
Maximum _ 12,2 C 13,7 C 91 % 1011,8 hPa 2,1 mm 9,3 km/h
W-SW (2 Bft)
- - 9,6 C 23,8 km/h
W-NW (4 Bft)
Durchschnitt _ 9,8 C 10,0 C 87 % 1009,9 hPa #26,8 mm 3,2 km/h (1 Bft) W-SW - 7,7 C 4,1 km/h (1 Bft)